STARLINK-35682

Last updated on Tue Dec 16 2025 00:02:05 GMT+0000 (Coordinated Universal Time)

1 66467U 25262M 25348.89656143 .00045109 00000+0 10797-2 0 9994 2 66467 42.9992 58.9142 0001890 264.7143 95.3498 15.40728091 5897
UTC large
Height (km)
Speed (km/s)
/
Latitude / Longitude
Inclination (degrees)
Orbital Period (minutes)
Azimuth
Elevation
Range (km)
Doppler Factor

Next 0 passes for location: London (51.5072 / 0.1276)

Sorry there are no passes over London.